Location: Camps Bay
(33.9517°S, 18.3844°E)
Time: 21:13:58
(UTC+00:00)

Cosmos 2151 Rocket - Pass Details

Date: 18 January 2020
Orbit: 618 x 641 km, 82.5° (Epoch: 16 February)

Event Time Altitude Azimuth Distance (km) Brightness Sun altitude
Rises 01:16:18 0° 190° (S) 2,958 7.6 -26.0°
Reaches altitude 10° 01:18:35 10° 193° (SSW) 2,038 6.7 -25.8°
Enters shadow 01:22:12 53° 220° (SW) 786 4.0 -25.3°
